Weather History for Kirksville, MO

Change the Weather History Date:

Saturday, March 2, 2013

  Actual Average Record
Temperature  
Mean Temperature 20 °F 35 °F  
Max Temperature 31 °F 44 °F 75 °F (1976)
Min Temperature 9 °F 26 °F -3 °F (2014)
Degree Days  
Heating Degree Days 45 30  
Month to date heating degree days 83 61  
Since 1 July heating degree days 4463 4594  
Cooling Degree Days 0 0  
Month to date cooling degree days 0 0  
Year to date cooling degree days 0 0  
Moisture  
Dew Point 14 °F    
Average Humidity 73    
Maximum Humidity 92    
Minimum Humidity 53    
Precipitation  
Precipitation 0.00 in 0.08 in 1.09 in (1965)
Month to date precipitation 0.01 0.16  
Year to date precipitation 5.46 2.96  
Sea Level Pressure  
Sea Level Pressure 30.31 in    
Wind  
Wind Speed 6 mph (NW)    
Max Wind Speed 14 mph    
Max Gust Speed 18 mph    
Visibility 10 miles    
Events      
T = Trace of Precipitation, MM = Missing Value Source: NWS Daily Summary

Daily Weather History Graph

Daily Weather History Graph

Search for Another Location

Airport:

Trip Planner

Search our weather history database for the weather conditions in past years. The results will help you decide how hot, cold, wet, or windy it might be!

Date:

Astronomy

Mar. 02, 2013 Rise Set
Actual Time 6:41 AM CST 6:03 PM CST
Civil Twilight 6:14 AM CST 6:30 PM CST
Nautical Twilight 5:43 AM CST 7:02 PM CST
Astronomical Twilight 5:11 AM CST 7:33 PM CST
Moon 11:43 PM CST (3/2) 9:09 AM CST (3/2)
Length of Visible Light 12h 16m
Length of Day
11h 21m
Waning Gibbous, 74% of the Moon is Illuminated
Mar 2
Waning Gibbous
Mar 4
Last Quarter
Mar 11
New
Mar 19
First Quarter
Mar 27
Full

Hourly Weather History & Observations

Time (CST) Temp. Windchill Dew Point Humidity Pressure Visibility Wind Dir Wind Speed Gust Speed Precip Events Conditions
12:55 AM 23.0 °F 13.1 °F 17.6 °F 80% 30.28 in 10.0 mi NNW 9.2 mph - N/A   Overcast
1:55 AM 21.9 °F 13.4 °F 16.0 °F 78% 30.32 in 10.0 mi NNW 6.9 mph - N/A   Overcast
2:55 AM 21.9 °F 13.4 °F 16.0 °F 78% 30.31 in 10.0 mi NNW 6.9 mph - N/A   Overcast
3:55 AM 21.9 °F 14.5 °F 15.1 °F 75% 30.30 in 10.0 mi NW 5.8 mph - N/A   Overcast
4:55 AM 21.9 °F 15.7 °F 15.1 °F 75% 30.32 in 10.0 mi NW 4.6 mph - N/A   Overcast
5:55 AM 21.9 °F 14.5 °F 15.1 °F 75% 30.33 in 10.0 mi NNW 5.8 mph - N/A   Overcast
6:37 AM 21.2 °F 11.7 °F 14.0 °F 74% 30.28 in 10.0 mi NNW 8.1 mph - N/A   Overcast
6:55 AM 21.9 °F 12.5 °F 14.0 °F 72% 30.34 in 10.0 mi NNW 8.1 mph - N/A   Overcast
7:55 AM 23.0 °F 14.7 °F 14.0 °F 68% 30.34 in 10.0 mi NNW 6.9 mph - N/A   Overcast
8:52 AM 23.0 °F 11.7 °F 15.8 °F 74% 30.30 in 10.0 mi NNW 11.5 mph - N/A   Partly Cloudy
8:55 AM 23.0 °F 13.9 °F 15.1 °F 72% 30.35 in 10.0 mi NNW 8.1 mph - N/A   Partly Cloudy
9:55 AM 25.0 °F 14.2 °F 16.0 °F 69% 30.36 in 10.0 mi NNW 11.5 mph 18.4 mph N/A   Clear
10:31 AM 24.8 °F 14.6 °F 15.8 °F 69% 30.30 in 10.0 mi NW 10.4 mph - N/A   Mostly Cloudy
10:50 AM 26.6 °F 16.8 °F 15.8 °F 64% 30.30 in 10.0 mi NW 10.4 mph - N/A   Scattered Clouds
10:55 AM 26.1 °F 17.6 °F 17.1 °F 69% 30.35 in 10.0 mi NW 8.1 mph - N/A   Partly Cloudy
11:55 AM 28.0 °F 18.6 °F 16.0 °F 61% 30.34 in 10.0 mi North 10.4 mph - N/A   Clear
12:55 PM 28.0 °F 21.7 °F 16.0 °F 61% 30.32 in 10.0 mi North 5.8 mph - N/A   Clear
1:55 PM 28.9 °F 21.9 °F 16.0 °F 58% 30.30 in 10.0 mi NW 6.9 mph - N/A   Scattered Clouds
2:55 PM 30.0 °F 23.2 °F 16.0 °F 56% 30.30 in 10.0 mi North 6.9 mph - N/A   Clear
3:55 PM 30.9 °F 25.2 °F 15.1 °F 52% 30.29 in 10.0 mi NNW 5.8 mph - N/A   Clear
4:55 PM 28.9 °F - 16.0 °F 58% 30.28 in 10.0 mi Calm Calm - N/A   Clear
5:55 PM 26.1 °F 20.5 °F 15.1 °F 63% 30.29 in 10.0 mi WNW 4.6 mph - N/A   Clear
6:55 PM 23.0 °F 17.0 °F 14.0 °F 68% 30.29 in 10.0 mi WNW 4.6 mph - N/A   Clear
7:55 PM 16.0 °F 8.8 °F 10.9 °F 81% 30.28 in 10.0 mi WSW 4.6 mph - N/A   Clear
8:55 PM 12.9 °F 5.2 °F 10.0 °F 88% 30.28 in 10.0 mi West 4.6 mph - N/A   Clear
9:55 PM 12.9 °F 6.9 °F 10.0 °F 88% 30.28 in 10.0 mi West 3.5 mph - N/A   Clear
10:55 PM 10.9 °F - 7.0 °F 84% 30.27 in 9.0 mi Calm Calm - N/A   Clear
11:55 PM 14.0 °F - 10.0 °F 84% 30.26 in 10.0 mi Calm Calm - N/A   Overcast